CMP134 MPTO-TNCM

Flight info

Callsign CMP134
Flight time 2h 41m
Altitude 35000
Route EGETA3A EGETA DCT PONPO DCT BOGAL DCT SCAPA L335 MLIZA L204 GOUDA
Aircraft B738/M-SDE2E3FGHIRWXY/LB1

Departure

Time 2026-05-07 09:02
Airport Tocumen International Airport (MPTO)

Arrival

Time 2026-05-07 11:43
Airport Princess Juliana International Airport (TNCM)
Time Latitude Longitude Altitude Speed Heading
2026-05-07 08:25 9.07127 -79.38461 61 ft 0 kts 300°
2026-05-07 08:48 9.07126 -79.38461 61 ft 0 kts 300°
2026-05-07 08:49 9.07119 -79.38449 60 ft 2 kts 300°
2026-05-07 08:49 9.07112 -79.38435 60 ft 2 kts 300°
2026-05-07 08:49 9.07104 -79.38423 60 ft 1 kts 300°
2026-05-07 08:49 9.07099 -79.38414 60 ft 2 kts 282°
2026-05-07 08:50 9.07100 -79.38399 60 ft 2 kts 249°
2026-05-07 08:50 9.07109 -79.38386 60 ft 1 kts 217°
2026-05-07 08:50 9.07114 -79.38383 60 ft 1 kts 205°
2026-05-07 08:50 9.07118 -79.38381 60 ft 0 kts 209°
2026-05-07 08:55 9.07108 -79.38387 60 ft 4 kts 208°
2026-05-07 08:55 9.07071 -79.38406 59 ft 7 kts 208°
2026-05-07 08:55 9.07019 -79.38435 60 ft 9 kts 208°
2026-05-07 08:55 9.06950 -79.38472 60 ft 12 kts 204°
2026-05-07 08:56 9.06874 -79.38425 58 ft 16 kts 126°
2026-05-07 08:56 9.06773 -79.38409 58 ft 17 kts 208°
2026-05-07 08:56 9.06664 -79.38456 57 ft 16 kts 219°
2026-05-07 08:56 9.06562 -79.38533 56 ft 19 kts 209°
2026-05-07 08:57 9.06433 -79.38606 52 ft 21 kts 209°
2026-05-07 08:57 9.06273 -79.38632 47 ft 25 kts 185°
2026-05-07 08:57 9.06095 -79.38686 43 ft 28 kts 208°
2026-05-07 08:57 9.05915 -79.38790 41 ft 31 kts 210°
2026-05-07 08:58 9.05756 -79.38883 38 ft 20 kts 210°
2026-05-07 08:58 9.05625 -79.38960 37 ft 22 kts 210°
2026-05-07 08:58 9.05473 -79.39043 34 ft 26 kts 210°
2026-05-07 08:58 9.05306 -79.39142 32 ft 29 kts 211°
2026-05-07 08:59 9.05119 -79.39247 32 ft 31 kts 208°
2026-05-07 08:59 9.04949 -79.39347 31 ft 23 kts 210°
2026-05-07 08:59 9.04838 -79.39361 31 ft 12 kts 101°
2026-05-07 08:59 9.04790 -79.39297 31 ft 13 kts 133°
2026-05-07 09:00 9.04820 -79.39226 29 ft 0 kts 31°
2026-05-07 09:01 9.04829 -79.39221 29 ft 3 kts 31°
2026-05-07 09:01 9.04908 -79.39175 30 ft 30 kts 30°
2026-05-07 09:01 9.05339 -79.38934 33 ft 107 kts 29°
2026-05-07 09:01 9.06193 -79.38454 53 ft 169 kts 29°
2026-05-07 09:02 9.07237 -79.37865 860 ft 167 kts 28°
2026-05-07 09:02 9.08215 -79.37238 1593 ft 176 kts 36°
2026-05-07 09:02 9.09183 -79.36429 2128 ft 187 kts 37°
2026-05-07 09:02 9.10226 -79.35596 2702 ft 196 kts 36°
2026-05-07 09:03 9.11372 -79.34691 3028 ft 222 kts 36°
2026-05-07 09:03 9.12534 -79.33805 3600 ft 232 kts 36°
2026-05-07 09:03 9.13862 -79.32819 4281 ft 242 kts 36°
2026-05-07 09:03 9.15254 -79.31782 4842 ft 257 kts 36°
2026-05-07 09:04 9.16707 -79.30672 5452 ft 269 kts 37°
2026-05-07 09:04 9.18168 -79.29519 6410 ft 266 kts 38°
2026-05-07 09:04 9.19634 -79.28374 7158 ft 271 kts 38°
2026-05-07 09:04 9.21162 -79.27225 7829 ft 278 kts 38°
2026-05-07 09:05 9.22662 -79.26103 8582 ft 279 kts 38°
2026-05-07 09:05 9.24179 -79.24970 9267 ft 283 kts 38°
2026-05-07 09:05 9.25762 -79.23786 10033 ft 285 kts 39°
2026-05-07 09:05 9.27323 -79.22615 10431 ft 299 kts 39°
2026-05-07 09:06 9.29039 -79.21317 10800 ft 314 kts 39°
2026-05-07 09:06 9.30863 -79.19930 11151 ft 330 kts 39°
2026-05-07 09:06 9.32706 -79.18530 11716 ft 336 kts 39°
2026-05-07 09:06 9.34602 -79.17092 11940 ft 340 kts 39°
2026-05-07 09:07 9.36440 -79.15700 11955 ft 337 kts 39°
2026-05-07 09:07 9.38364 -79.14240 12365 ft 344 kts 40°
2026-05-07 09:07 9.40247 -79.12812 13165 ft 342 kts 40°
2026-05-07 09:07 9.42183 -79.11327 13755 ft 346 kts 42°
2026-05-07 09:08 9.43877 -79.09705 14427 ft 344 kts 53°
2026-05-07 09:08 9.45115 -79.07683 15028 ft 343 kts 69°
2026-05-07 09:08 9.45754 -79.05366 15653 ft 343 kts 82°
2026-05-07 09:08 9.45948 -79.02937 16269 ft 345 kts 90°
2026-05-07 09:09 9.45711 -79.00525 16861 ft 348 kts 99°
2026-05-07 09:09 9.45195 -78.98139 17456 ft 350 kts 102°
2026-05-07 09:09 9.44580 -78.95734 17980 ft 354 kts 103°
2026-05-07 09:09 9.43952 -78.93311 18511 ft 357 kts 102°
2026-05-07 09:10 9.43359 -78.90943 18848 ft 357 kts 102°
2026-05-07 09:10 9.42772 -78.88498 19228 ft 363 kts 102°
2026-05-07 09:10 9.42184 -78.85983 19769 ft 365 kts 101°
2026-05-07 09:10 9.41612 -78.83500 20261 ft 367 kts 101°
2026-05-07 09:11 9.41032 -78.80968 20740 ft 369 kts 101°
2026-05-07 09:11 9.40454 -78.78445 21209 ft 371 kts 101°
2026-05-07 09:11 9.39863 -78.75864 21672 ft 374 kts 101°
2026-05-07 09:11 9.39278 -78.73311 22107 ft 376 kts 100°
2026-05-07 09:12 9.38686 -78.70731 22554 ft 378 kts 100°
2026-05-07 09:12 9.38091 -78.68133 22919 ft 382 kts 101°
2026-05-07 09:12 9.37490 -78.65515 23293 ft 386 kts 101°
2026-05-07 09:12 9.36885 -78.62881 23692 ft 388 kts 101°
2026-05-07 09:13 9.36267 -78.60191 24071 ft 392 kts 101°
2026-05-07 09:13 9.35643 -78.57478 24449 ft 395 kts 101°
2026-05-07 09:13 9.35026 -78.54794 24834 ft 397 kts 101°
2026-05-07 09:13 9.34395 -78.52049 25181 ft 401 kts 101°
2026-05-07 09:14 9.33766 -78.49312 25525 ft 404 kts 101°
2026-05-07 09:14 9.33125 -78.46530 25947 ft 405 kts 101°
2026-05-07 09:14 9.32481 -78.43736 26245 ft 409 kts 101°
2026-05-07 09:14 9.31840 -78.40951 26570 ft 412 kts 101°
2026-05-07 09:15 9.31186 -78.38115 26960 ft 413 kts 101°
2026-05-07 09:15 9.30533 -78.35287 27244 ft 417 kts 101°
2026-05-07 09:15 9.29868 -78.32401 27612 ft 418 kts 101°
2026-05-07 09:15 9.29205 -78.29527 27884 ft 422 kts 101°
2026-05-07 09:16 9.28537 -78.26630 28243 ft 423 kts 101°
2026-05-07 09:16 9.27998 -78.23729 28493 ft 426 kts 96°
2026-05-07 09:16 9.27824 -78.20717 28771 ft 427 kts 87°
2026-05-07 09:16 9.28158 -78.17747 29058 ft 429 kts 77°
2026-05-07 09:17 9.28954 -78.14795 29361 ft 431 kts 71°
2026-05-07 09:17 9.29945 -78.11927 29656 ft 433 kts 69°
2026-05-07 09:17 9.30959 -78.09241 29833 ft 437 kts 68°
2026-05-07 09:17 9.32069 -78.06407 30175 ft 438 kts 68°
2026-05-07 09:18 9.33217 -78.03501 30422 ft 441 kts 68°
2026-05-07 09:18 9.34347 -78.00633 30726 ft 443 kts 68°
2026-05-07 09:18 9.35425 -77.97875 30924 ft 447 kts 68°
2026-05-07 09:18 9.36541 -77.95001 31211 ft 448 kts 68°
2026-05-07 09:19 9.37698 -77.92003 31426 ft 452 kts 68°
2026-05-07 09:19 9.38842 -77.89025 31665 ft 455 kts 68°
2026-05-07 09:19 9.39997 -77.86008 31907 ft 457 kts 68°
2026-05-07 09:19 9.41080 -77.83173 32161 ft 459 kts 68°
2026-05-07 09:20 9.42236 -77.80144 32384 ft 462 kts 68°
2026-05-07 09:20 9.43401 -77.77090 32737 ft 461 kts 67°
2026-05-07 09:20 9.44515 -77.74165 33175 ft 459 kts 67°
2026-05-07 09:20 9.45667 -77.71137 33547 ft 459 kts 67°
2026-05-07 09:21 9.46821 -77.68102 33882 ft 460 kts 67°
2026-05-07 09:21 9.47979 -77.65054 34212 ft 460 kts 67°
2026-05-07 09:21 9.49130 -77.62026 34558 ft 459 kts 67°
2026-05-07 09:21 9.50287 -77.58982 34846 ft 460 kts 67°
2026-05-07 09:22 9.52596 -77.52908 34869 ft 461 kts 67°
2026-05-07 09:22 9.54849 -77.46975 34861 ft 458 kts 67°
2026-05-07 09:23 9.57321 -77.41109 34853 ft 458 kts 60°
2026-05-07 09:23 9.60588 -77.35611 34854 ft 456 kts 54°
2026-05-07 09:24 9.64203 -77.30273 34850 ft 456 kts 53°
2026-05-07 09:24 9.67741 -77.25119 34848 ft 455 kts 53°
2026-05-07 09:25 9.71165 -77.20053 34847 ft 455 kts 54°
2026-05-07 09:25 9.74732 -77.14713 34844 ft 455 kts 54°
2026-05-07 09:26 9.78209 -77.09480 34844 ft 456 kts 54°
2026-05-07 09:26 9.81739 -77.04151 34842 ft 455 kts 54°
2026-05-07 09:27 9.85259 -76.98834 34844 ft 454 kts 54°
2026-05-07 09:28 9.90563 -76.90811 34843 ft 455 kts 54°
2026-05-07 09:28 9.94085 -76.85480 34843 ft 455 kts 54°
2026-05-07 09:29 9.97606 -76.80148 34844 ft 455 kts 54°
2026-05-07 09:29 10.01139 -76.74796 34845 ft 455 kts 54°
2026-05-07 09:30 10.04651 -76.69473 34843 ft 454 kts 54°
2026-05-07 09:30 10.08108 -76.64232 34844 ft 453 kts 54°
2026-05-07 09:31 10.11615 -76.58912 34844 ft 454 kts 54°
2026-05-07 09:31 10.15158 -76.53535 34846 ft 454 kts 54°
2026-05-07 09:32 10.18660 -76.48217 34850 ft 455 kts 54°
2026-05-07 09:32 10.22112 -76.42971 34852 ft 455 kts 54°
2026-05-07 09:33 10.25646 -76.37600 34851 ft 454 kts 54°
2026-05-07 09:33 10.29081 -76.32377 34852 ft 454 kts 54°
2026-05-07 09:34 10.32594 -76.27032 34848 ft 453 kts 54°
2026-05-07 09:34 10.35928 -76.21957 34849 ft 454 kts 55°
2026-05-07 09:35 10.39425 -76.16630 34846 ft 454 kts 55°
2026-05-07 09:35 10.42956 -76.11253 34848 ft 453 kts 54°
2026-05-07 09:36 10.46444 -76.05938 34850 ft 454 kts 54°
2026-05-07 09:36 10.49886 -76.00686 34854 ft 453 kts 54°
2026-05-07 09:37 10.53375 -75.95363 34853 ft 453 kts 55°
2026-05-07 09:37 10.56863 -75.90040 34854 ft 453 kts 55°
2026-05-07 09:38 10.60357 -75.84705 34856 ft 452 kts 55°
2026-05-07 09:38 10.63828 -75.79403 34855 ft 451 kts 55°
2026-05-07 09:39 10.67253 -75.74167 34858 ft 451 kts 55°
2026-05-07 09:39 10.70718 -75.68868 34858 ft 451 kts 55°
2026-05-07 09:40 10.74058 -75.63757 34857 ft 450 kts 54°
2026-05-07 09:40 10.77509 -75.58478 34853 ft 451 kts 55°
2026-05-07 09:41 10.80981 -75.53161 34847 ft 449 kts 55°
2026-05-07 09:41 10.84422 -75.47885 34843 ft 449 kts 55°
2026-05-07 09:42 10.87879 -75.42587 34838 ft 448 kts 55°
2026-05-07 09:42 10.91318 -75.37315 34833 ft 448 kts 55°
2026-05-07 09:43 10.94777 -75.32008 34831 ft 448 kts 55°
2026-05-07 09:43 10.98222 -75.26718 34835 ft 447 kts 55°
2026-05-07 09:44 11.01675 -75.21415 34838 ft 448 kts 55°
2026-05-07 09:44 11.05096 -75.16156 34847 ft 444 kts 55°
2026-05-07 09:45 11.08499 -75.10925 34844 ft 445 kts 55°
2026-05-07 09:45 11.11933 -75.05643 34846 ft 445 kts 55°
2026-05-07 09:46 11.15344 -75.00390 34848 ft 445 kts 55°
2026-05-07 09:46 11.18762 -74.95129 34852 ft 446 kts 55°
2026-05-07 09:47 11.22182 -74.89864 34860 ft 443 kts 55°
2026-05-07 09:47 11.25582 -74.84623 34852 ft 444 kts 55°
2026-05-07 09:48 11.28936 -74.79448 34868 ft 444 kts 55°
2026-05-07 09:48 11.32233 -74.74361 34871 ft 443 kts 55°
2026-05-07 09:49 11.35618 -74.69138 34871 ft 444 kts 55°
2026-05-07 09:49 11.39037 -74.63856 34878 ft 444 kts 55°
2026-05-07 09:50 11.42435 -74.58606 34880 ft 443 kts 55°
2026-05-07 09:50 11.45813 -74.53382 34880 ft 442 kts 55°
2026-05-07 09:51 11.49140 -74.48235 34881 ft 442 kts 55°
2026-05-07 09:51 11.52436 -74.43134 34887 ft 441 kts 55°
2026-05-07 09:52 11.55813 -74.37907 34893 ft 442 kts 55°
2026-05-07 09:52 11.59211 -74.32644 34885 ft 442 kts 55°
2026-05-07 09:53 11.62583 -74.27417 34887 ft 440 kts 55°
2026-05-07 09:53 11.65772 -74.22471 34891 ft 441 kts 55°
2026-05-07 09:54 11.69081 -74.17339 34898 ft 442 kts 55°
2026-05-07 09:54 11.72372 -74.12233 34901 ft 440 kts 55°
2026-05-07 09:55 11.75747 -74.06991 34896 ft 441 kts 55°
2026-05-07 09:55 11.79110 -74.01764 34900 ft 440 kts 55°
2026-05-07 09:56 11.82474 -73.96532 34894 ft 440 kts 55°
2026-05-07 09:56 11.85832 -73.91308 34893 ft 440 kts 55°
2026-05-07 09:57 11.89135 -73.86167 34891 ft 440 kts 55°
2026-05-07 09:57 11.92409 -73.81068 34888 ft 440 kts 55°
2026-05-07 09:58 11.95726 -73.75901 34889 ft 438 kts 55°
2026-05-07 09:58 11.98963 -73.70856 34886 ft 438 kts 55°
2026-05-07 09:59 12.02319 -73.65622 34886 ft 439 kts 55°
2026-05-07 09:59 12.05565 -73.60560 34885 ft 439 kts 55°
2026-05-07 10:00 12.08911 -73.55333 34887 ft 438 kts 55°
2026-05-07 10:00 12.12271 -73.50084 34886 ft 439 kts 55°
2026-05-07 10:01 12.15604 -73.44874 34888 ft 438 kts 55°
2026-05-07 10:01 12.18931 -73.39672 34888 ft 439 kts 55°
2026-05-07 10:02 12.22287 -73.34421 34893 ft 439 kts 55°
2026-05-07 10:02 12.25631 -73.29187 34889 ft 439 kts 55°
2026-05-07 10:03 12.28951 -73.23985 34890 ft 438 kts 55°
2026-05-07 10:03 12.32309 -73.18721 34893 ft 440 kts 55°
2026-05-07 10:04 12.35647 -73.13490 34894 ft 439 kts 55°
2026-05-07 10:04 12.38887 -73.08408 34890 ft 438 kts 55°
2026-05-07 10:05 12.42212 -73.03190 34894 ft 440 kts 55°
2026-05-07 10:05 12.45565 -72.97924 34894 ft 439 kts 55°
2026-05-07 10:06 12.48897 -72.92688 34894 ft 440 kts 55°
2026-05-07 10:06 12.52244 -72.87423 34895 ft 441 kts 55°
2026-05-07 10:07 12.55595 -72.82148 34895 ft 439 kts 55°
2026-05-07 10:07 12.58933 -72.76891 34898 ft 440 kts 55°
2026-05-07 10:08 12.62270 -72.71634 34893 ft 440 kts 54°
2026-05-07 10:08 12.65545 -72.66473 34885 ft 438 kts 55°
2026-05-07 10:09 12.68817 -72.61315 34892 ft 439 kts 54°
2026-05-07 10:09 12.72161 -72.56040 34891 ft 440 kts 54°
2026-05-07 10:10 12.75474 -72.50813 34894 ft 439 kts 54°
2026-05-07 10:10 12.78815 -72.45534 34896 ft 439 kts 54°
2026-05-07 10:11 12.82139 -72.40280 34899 ft 440 kts 54°
2026-05-07 10:11 12.85461 -72.35026 34903 ft 438 kts 54°
2026-05-07 10:12 12.88811 -72.29726 34902 ft 440 kts 54°
2026-05-07 10:12 12.92122 -72.24484 34903 ft 438 kts 54°
2026-05-07 10:13 12.95437 -72.19233 34906 ft 439 kts 54°
2026-05-07 10:13 12.98753 -72.13975 34903 ft 438 kts 54°
2026-05-07 10:14 13.02054 -72.08741 34906 ft 438 kts 54°
2026-05-07 10:14 13.05382 -72.03461 34903 ft 438 kts 54°
2026-05-07 10:15 13.08689 -71.98212 34899 ft 438 kts 54°
2026-05-07 10:15 13.11993 -71.92962 34895 ft 438 kts 54°
2026-05-07 10:16 13.15291 -71.87719 34902 ft 437 kts 54°
2026-05-07 10:16 13.18592 -71.82467 34909 ft 437 kts 54°
2026-05-07 10:17 13.21897 -71.77206 34914 ft 437 kts 54°
2026-05-07 10:17 13.25188 -71.71967 34916 ft 438 kts 54°
2026-05-07 10:18 13.28488 -71.66708 34917 ft 438 kts 54°
2026-05-07 10:18 13.31780 -71.61460 34919 ft 437 kts 54°
2026-05-07 10:19 13.34997 -71.56328 34921 ft 437 kts 54°
2026-05-07 10:19 13.38295 -71.51063 34927 ft 437 kts 54°
2026-05-07 10:20 13.41582 -71.45812 34929 ft 437 kts 54°
2026-05-07 10:20 13.44889 -71.40527 34932 ft 438 kts 54°
2026-05-07 10:21 13.48139 -71.35329 34936 ft 437 kts 54°
2026-05-07 10:21 13.51432 -71.30061 34928 ft 436 kts 54°
2026-05-07 10:22 13.54705 -71.24819 34929 ft 437 kts 54°
2026-05-07 10:22 13.57979 -71.19572 34935 ft 436 kts 54°
2026-05-07 10:23 13.61257 -71.14317 34936 ft 437 kts 54°
2026-05-07 10:23 13.64488 -71.09137 34935 ft 437 kts 54°
2026-05-07 10:24 13.67768 -71.03873 34937 ft 436 kts 54°
2026-05-07 10:24 13.71039 -70.98620 34931 ft 437 kts 54°
2026-05-07 10:25 13.74227 -70.93494 34938 ft 435 kts 54°
2026-05-07 10:25 13.77489 -70.88249 34939 ft 435 kts 54°
2026-05-07 10:26 13.80693 -70.83096 34936 ft 435 kts 53°
2026-05-07 10:26 13.83952 -70.77850 34938 ft 436 kts 54°
2026-05-07 10:27 13.87202 -70.72612 34944 ft 434 kts 53°
2026-05-07 10:27 13.90293 -70.67628 34945 ft 435 kts 53°
2026-05-07 10:28 13.93542 -70.62390 34944 ft 435 kts 53°
2026-05-07 10:28 13.96800 -70.57132 34946 ft 434 kts 53°
2026-05-07 10:29 14.00021 -70.51930 34951 ft 433 kts 53°
2026-05-07 10:29 14.03256 -70.46703 34959 ft 432 kts 53°
2026-05-07 10:30 14.08100 -70.38869 34960 ft 432 kts 53°
2026-05-07 10:30 14.11333 -70.33637 34964 ft 432 kts 53°
2026-05-07 10:31 14.14531 -70.28460 34962 ft 434 kts 53°
2026-05-07 10:31 14.17764 -70.23221 34966 ft 433 kts 53°
2026-05-07 10:32 14.20985 -70.17998 34966 ft 433 kts 53°
2026-05-07 10:32 14.24114 -70.12917 34971 ft 431 kts 53°
2026-05-07 10:33 14.27322 -70.07708 34967 ft 431 kts 53°
2026-05-07 10:33 14.30547 -70.02470 34972 ft 431 kts 53°
2026-05-07 10:34 14.33702 -69.97343 34973 ft 429 kts 53°
2026-05-07 10:34 14.36906 -69.92133 34972 ft 431 kts 53°
2026-05-07 10:35 14.40117 -69.86912 34971 ft 431 kts 53°
2026-05-07 10:35 14.43315 -69.81699 34967 ft 430 kts 53°
2026-05-07 10:36 14.46516 -69.76482 34969 ft 431 kts 53°
2026-05-07 10:36 14.49697 -69.71294 34966 ft 430 kts 53°
2026-05-07 10:37 14.52905 -69.66058 34972 ft 431 kts 52°
2026-05-07 10:37 14.56106 -69.60829 34971 ft 429 kts 52°
2026-05-07 10:38 14.59295 -69.55618 34973 ft 429 kts 52°
2026-05-07 10:38 14.62494 -69.50391 34972 ft 429 kts 52°
2026-05-07 10:39 14.65638 -69.45249 34978 ft 430 kts 52°
2026-05-07 10:39 14.67238 -69.42636 34758 ft 433 kts 51°
2026-05-07 10:39 14.68824 -69.40009 34158 ft 434 kts 54°
2026-05-07 10:40 14.70320 -69.37334 34054 ft 423 kts 54°
2026-05-07 10:40 14.71851 -69.34734 34108 ft 425 kts 53°
2026-05-07 10:40 14.75096 -69.29527 34116 ft 435 kts 52°
2026-05-07 10:41 14.78366 -69.24292 34116 ft 436 kts 52°
2026-05-07 10:41 14.81629 -69.19003 34115 ft 436 kts 52°
2026-05-07 10:42 14.84860 -69.13719 34117 ft 435 kts 53°
2026-05-07 10:42 14.88025 -69.08525 34119 ft 435 kts 53°
2026-05-07 10:43 14.91242 -69.03239 34120 ft 434 kts 53°
2026-05-07 10:43 14.94449 -68.97955 34130 ft 434 kts 53°
2026-05-07 10:44 14.97668 -68.92654 34138 ft 436 kts 53°
2026-05-07 10:44 15.00807 -68.87483 34143 ft 436 kts 53°
2026-05-07 10:45 15.04034 -68.82158 34208 ft 435 kts 53°
2026-05-07 10:45 15.05632 -68.79520 34445 ft 433 kts 53°
2026-05-07 10:45 15.07236 -68.76871 34689 ft 434 kts 53°
2026-05-07 10:46 15.08854 -68.74199 34931 ft 434 kts 52°
2026-05-07 10:46 15.10442 -68.71576 34959 ft 436 kts 52°
2026-05-07 10:46 15.13656 -68.66259 34953 ft 435 kts 52°
2026-05-07 10:47 15.16862 -68.60957 34950 ft 432 kts 52°
2026-05-07 10:47 15.20064 -68.55662 34951 ft 434 kts 52°
2026-05-07 10:48 15.23273 -68.50352 34952 ft 434 kts 52°
2026-05-07 10:48 15.26462 -68.45069 34951 ft 434 kts 52°
2026-05-07 10:49 15.29661 -68.39764 34951 ft 437 kts 52°
2026-05-07 10:49 15.32896 -68.34398 34948 ft 436 kts 53°
2026-05-07 10:50 15.36034 -68.29182 34947 ft 436 kts 53°
2026-05-07 10:50 15.39185 -68.23944 34948 ft 436 kts 53°
2026-05-07 10:51 15.42394 -68.18613 34946 ft 438 kts 53°
2026-05-07 10:51 15.45618 -68.13242 34952 ft 437 kts 53°
2026-05-07 10:52 15.48774 -68.07985 34951 ft 439 kts 53°
2026-05-07 10:52 15.52021 -68.02580 34950 ft 439 kts 53°
2026-05-07 10:53 15.55214 -67.97250 34952 ft 438 kts 53°
2026-05-07 10:53 15.58436 -67.91876 34952 ft 440 kts 53°
2026-05-07 10:54 15.61674 -67.86472 34951 ft 438 kts 53°
2026-05-07 10:54 15.64787 -67.81267 34951 ft 438 kts 53°
2026-05-07 10:55 15.68009 -67.75880 34953 ft 443 kts 53°
2026-05-07 10:55 15.71243 -67.70467 34950 ft 439 kts 53°
2026-05-07 10:56 15.74336 -67.65288 34950 ft 442 kts 53°
2026-05-07 10:56 15.77556 -67.59891 34949 ft 440 kts 53°
2026-05-07 10:57 15.80805 -67.54444 34948 ft 443 kts 53°
2026-05-07 10:57 15.84045 -67.49013 34951 ft 442 kts 53°
2026-05-07 10:58 15.87254 -67.43765 34948 ft 444 kts 52°
2026-05-07 10:58 15.90583 -67.38407 34951 ft 443 kts 52°
2026-05-07 10:59 15.93916 -67.33038 34951 ft 444 kts 53°
2026-05-07 10:59 15.97259 -67.27638 34949 ft 443 kts 53°
2026-05-07 11:00 16.00590 -67.22247 34951 ft 445 kts 53°
2026-05-07 11:00 16.03937 -67.16817 34953 ft 444 kts 53°
2026-05-07 11:01 16.07269 -67.11405 34951 ft 444 kts 53°
2026-05-07 11:01 16.10588 -67.06008 34953 ft 445 kts 53°
2026-05-07 11:02 16.13960 -67.00521 34954 ft 445 kts 53°
2026-05-07 11:02 16.17265 -66.95140 34956 ft 445 kts 53°
2026-05-07 11:03 16.20565 -66.89764 34966 ft 445 kts 53°
2026-05-07 11:03 16.23922 -66.84291 34972 ft 447 kts 53°
2026-05-07 11:04 16.27264 -66.78835 34972 ft 446 kts 53°
2026-05-07 11:04 16.30586 -66.73408 34972 ft 446 kts 53°
2026-05-07 11:05 16.33917 -66.67966 34973 ft 448 kts 53°
2026-05-07 11:05 16.37266 -66.62490 34971 ft 448 kts 53°
2026-05-07 11:06 16.40523 -66.57159 34972 ft 448 kts 53°
2026-05-07 11:06 16.43873 -66.51677 34971 ft 449 kts 53°
2026-05-07 11:07 16.47170 -66.46273 34972 ft 448 kts 53°
2026-05-07 11:07 16.50445 -66.40900 34973 ft 449 kts 53°
2026-05-07 11:08 16.53803 -66.35388 34971 ft 450 kts 53°
2026-05-07 11:08 16.57161 -66.29870 34972 ft 449 kts 54°
2026-05-07 11:09 16.60525 -66.24338 34972 ft 450 kts 54°
2026-05-07 11:09 16.63882 -66.18816 34972 ft 451 kts 54°
2026-05-07 11:10 16.67232 -66.13294 34973 ft 449 kts 54°
2026-05-07 11:10 16.70588 -66.07763 34985 ft 451 kts 54°
2026-05-07 11:11 16.73866 -66.02357 35030 ft 451 kts 54°
2026-05-07 11:11 16.77124 -65.96977 35031 ft 451 kts 54°
2026-05-07 11:12 16.80476 -65.91440 35030 ft 450 kts 54°
2026-05-07 11:12 16.83819 -65.85915 35032 ft 451 kts 54°
2026-05-07 11:13 16.87185 -65.80346 35031 ft 452 kts 54°
2026-05-07 11:13 16.90513 -65.74835 35029 ft 451 kts 54°
2026-05-07 11:14 16.93822 -65.69352 35029 ft 453 kts 54°
2026-05-07 11:14 16.97101 -65.63916 35029 ft 453 kts 54°
2026-05-07 11:15 17.00467 -65.58330 35029 ft 452 kts 54°
2026-05-07 11:15 17.03812 -65.52772 35031 ft 453 kts 54°
2026-05-07 11:16 17.07171 -65.47188 35031 ft 453 kts 54°
2026-05-07 11:16 17.10523 -65.41610 35031 ft 454 kts 54°
2026-05-07 11:17 17.13928 -65.35939 35036 ft 454 kts 54°
2026-05-07 11:17 17.17318 -65.30290 35035 ft 456 kts 54°
2026-05-07 11:18 17.20640 -65.24749 35034 ft 456 kts 54°
2026-05-07 11:18 17.24009 -65.19124 35035 ft 456 kts 54°
2026-05-07 11:19 17.27317 -65.13598 35036 ft 455 kts 54°
2026-05-07 11:19 17.30698 -65.07944 35037 ft 455 kts 54°
2026-05-07 11:20 17.34058 -65.02322 35037 ft 457 kts 54°
2026-05-07 11:20 17.37426 -64.96680 35037 ft 457 kts 54°
2026-05-07 11:21 17.40753 -64.91101 35040 ft 457 kts 54°
2026-05-07 11:21 17.44057 -64.85558 34995 ft 456 kts 54°
2026-05-07 11:22 17.45727 -64.82752 34589 ft 453 kts 54°
2026-05-07 11:22 17.47386 -64.79964 33543 ft 460 kts 54°
2026-05-07 11:22 17.48980 -64.77279 32429 ft 467 kts 54°
2026-05-07 11:22 17.50706 -64.74374 31727 ft 461 kts 54°
2026-05-07 11:23 17.52372 -64.71570 31210 ft 452 kts 54°
2026-05-07 11:23 17.54031 -64.68778 30483 ft 447 kts 55°
2026-05-07 11:23 17.55668 -64.66022 29728 ft 443 kts 55°
2026-05-07 11:23 17.57282 -64.63306 29039 ft 437 kts 55°
2026-05-07 11:24 17.58866 -64.60637 28256 ft 433 kts 55°
2026-05-07 11:24 17.60453 -64.57965 27506 ft 429 kts 55°
2026-05-07 11:24 17.62022 -64.55321 26746 ft 425 kts 55°
2026-05-07 11:24 17.63576 -64.52700 26036 ft 420 kts 55°
2026-05-07 11:25 17.65124 -64.50088 25296 ft 416 kts 56°
2026-05-07 11:25 17.66641 -64.47526 24623 ft 413 kts 56°
2026-05-07 11:25 17.68145 -64.44968 24204 ft 410 kts 56°
2026-05-07 11:25 17.69640 -64.42439 23801 ft 406 kts 56°
2026-05-07 11:26 17.71110 -64.39957 23250 ft 405 kts 56°
2026-05-07 11:26 17.72591 -64.37448 22810 ft 403 kts 56°
2026-05-07 11:26 17.74079 -64.34931 22503 ft 401 kts 56°
2026-05-07 11:26 17.75561 -64.32435 22231 ft 399 kts 56°
2026-05-07 11:27 17.77017 -64.29981 21944 ft 397 kts 56°
2026-05-07 11:27 17.78419 -64.27588 21700 ft 395 kts 57°
2026-05-07 11:27 17.79707 -64.25027 21420 ft 395 kts 63°
2026-05-07 11:27 17.80703 -64.22375 21082 ft 393 kts 69°
2026-05-07 11:28 17.81482 -64.19640 20581 ft 392 kts 73°
2026-05-07 11:28 17.82143 -64.16877 20126 ft 389 kts 75°
2026-05-07 11:28 17.82756 -64.14106 19647 ft 386 kts 75°
2026-05-07 11:28 17.83347 -64.11380 19188 ft 382 kts 75°
2026-05-07 11:29 17.83938 -64.08671 18742 ft 379 kts 75°
2026-05-07 11:29 17.84511 -64.06014 18399 ft 374 kts 75°
2026-05-07 11:29 17.85096 -64.03355 17926 ft 372 kts 75°
2026-05-07 11:29 17.85689 -64.00718 17453 ft 369 kts 75°
2026-05-07 11:30 17.86471 -63.97228 16727 ft 364 kts 75°
2026-05-07 11:30 17.86858 -63.95512 16274 ft 362 kts 75°
2026-05-07 11:30 17.87434 -63.92992 15599 ft 360 kts 75°
2026-05-07 11:30 17.88020 -63.90438 14944 ft 356 kts 75°
2026-05-07 11:31 17.88592 -63.87938 14295 ft 352 kts 75°
2026-05-07 11:31 17.89158 -63.85448 13894 ft 341 kts 75°
2026-05-07 11:31 17.89693 -63.83087 13669 ft 326 kts 75°
2026-05-07 11:31 17.90204 -63.80824 13336 ft 317 kts 75°
2026-05-07 11:32 17.91212 -63.76374 12389 ft 309 kts 75°
2026-05-07 11:32 17.91703 -63.74206 11920 ft 306 kts 75°
2026-05-07 11:32 17.92176 -63.72116 11481 ft 302 kts 75°
2026-05-07 11:33 17.92652 -63.70010 11032 ft 298 kts 75°
2026-05-07 11:33 17.93131 -63.67891 10577 ft 295 kts 75°
2026-05-07 11:33 17.93602 -63.65794 10109 ft 293 kts 76°
2026-05-07 11:33 17.94054 -63.63724 9632 ft 291 kts 76°
2026-05-07 11:34 17.94498 -63.61656 9154 ft 289 kts 76°
2026-05-07 11:34 17.94932 -63.59633 8680 ft 286 kts 76°
2026-05-07 11:34 17.95369 -63.57606 8201 ft 284 kts 76°
2026-05-07 11:34 17.95806 -63.55585 7720 ft 282 kts 76°
2026-05-07 11:35 17.96242 -63.53569 7236 ft 280 kts 76°
2026-05-07 11:35 17.96668 -63.51588 6755 ft 278 kts 77°
2026-05-07 11:35 17.97063 -63.49618 6285 ft 275 kts 77°
2026-05-07 11:35 17.97471 -63.47671 5829 ft 272 kts 76°
2026-05-07 11:36 17.97905 -63.45737 5368 ft 269 kts 76°
2026-05-07 11:36 17.98326 -63.43858 4914 ft 267 kts 77°
2026-05-07 11:36 17.98745 -63.41954 4450 ft 264 kts 77°
2026-05-07 11:36 17.99148 -63.40096 4037 ft 259 kts 77°
2026-05-07 11:37 17.99537 -63.38290 3808 ft 248 kts 77°
2026-05-07 11:37 17.99907 -63.36568 3558 ft 237 kts 77°
2026-05-07 11:37 18.00261 -63.34922 3297 ft 226 kts 78°
2026-05-07 11:37 18.00601 -63.33338 3036 ft 215 kts 78°
2026-05-07 11:38 18.00926 -63.31841 2829 ft 205 kts 78°
2026-05-07 11:38 18.01239 -63.30405 2678 ft 196 kts 78°
2026-05-07 11:38 18.01510 -63.29040 2544 ft 186 kts 81°
2026-05-07 11:38 18.01700 -63.27748 2491 ft 175 kts 82°
2026-05-07 11:39 18.01876 -63.26529 2401 ft 164 kts 82°
2026-05-07 11:39 18.02037 -63.25356 2243 ft 158 kts 82°
2026-05-07 11:39 18.02198 -63.24215 2103 ft 155 kts 82°
2026-05-07 11:39 18.02354 -63.23136 1961 ft 146 kts 82°
2026-05-07 11:40 18.02510 -63.22069 1832 ft 148 kts 82°
2026-05-07 11:40 18.02653 -63.21062 1701 ft 145 kts 82°
2026-05-07 11:40 18.02804 -63.20005 1570 ft 148 kts 82°
2026-05-07 11:40 18.02955 -63.18940 1323 ft 146 kts 82°
2026-05-07 11:41 18.03109 -63.17870 1121 ft 147 kts 82°
2026-05-07 11:41 18.03260 -63.16816 920 ft 147 kts 82°
2026-05-07 11:41 18.03407 -63.15746 705 ft 148 kts 82°
2026-05-07 11:41 18.03562 -63.14683 614 ft 145 kts 81°
2026-05-07 11:42 18.03714 -63.13628 397 ft 144 kts 82°
2026-05-07 11:42 18.03855 -63.12608 217 ft 139 kts 82°
2026-05-07 11:42 18.03994 -63.11638 38 ft 140 kts 81°
2026-05-07 11:42 18.04110 -63.10751 15 ft 89 kts 76°
2026-05-07 11:43 18.04167 -63.10351 18 ft 34 kts 82°
2026-05-07 11:43 18.04209 -63.10094 14 ft 33 kts 79°
2026-05-07 11:43 18.04209 -63.10021 14 ft 10 kts 281°
2026-05-07 11:43 18.04201 -63.10119 14 ft 19 kts 260°
2026-05-07 11:44 18.04177 -63.10315 17 ft 34 kts 260°
2026-05-07 11:44 18.04127 -63.10620 16 ft 50 kts 260°
2026-05-07 11:44 18.04075 -63.11017 16 ft 54 kts 262°
2026-05-07 11:44 18.04056 -63.11264 18 ft 19 kts 296°
2026-05-07 11:45 18.04170 -63.11306 18 ft 14 kts 347°
2026-05-07 11:45 18.04240 -63.11335 19 ft 11 kts 320°
2026-05-07 11:45 18.04309 -63.11359 21 ft 9 kts 351°
2026-05-07 11:45 18.04326 -63.11362 21 ft 0 kts 352°